DB0TBG Weather Reports


time (UTC)temp
F
wind
direction
speed
knots
gust
knots
rain 1hr
in
rain 24hr
in
rain mn
in
humidity
%
barometer
mb
20260506044235 54 281 0.0 0.0 0.00 0.43 0.04 91 961.0
20260506043351 54 276 0.0 0.0 0.04 0.43 0.04 91 961.0
20260506043236 54 276 0.0 0.0 0.04 0.43 0.04 91 961.0
20260506042231 54 281 0.0 0.0 0.04 0.43 0.04 91 961.0
20260506041232 54 278 0.0 0.0 0.04 0.43 0.04 91 961.0
20260506040229 54 277 0.0 0.0 0.04 0.43 0.04 91 961.0
20260506035226 54 276 0.0 0.0 0.04 0.43 0.04 91 961.0
20260506034226 54 274 0.0 0.0 0.04 0.43 0.04 91 961.0
20260506033226 54 275 0.0 0.0 0.00 0.43 0.04 91 961.0
20260506032223 54 276 0.0 0.0 0.00 0.43 0.04 91 961.0
20260506031224 54 274 0.0 0.0 0.00 0.43 0.00 91 961.0
20260506030228 54 272 0.0 0.0 0.00 0.43 0.00 91 962.0
20260506030224 54 272 0.0 0.0 0.00 0.43 0.00 91 962.0
20260506025220 54 278 0.0 0.0 0.00 0.43 0.00 90 962.0
20260506024348 54 275 0.0 0.0 0.00 0.43 0.00 90 962.0
20260506024221 54 275 0.0 0.0 0.00 0.43 0.00 90 962.0
20260506023222 54 276 0.0 0.0 0.00 0.43 0.00 90 962.0
20260506022220 54 271 0.0 0.0 0.00 0.43 0.00 90 962.0
20260506021217 54 268 0.0 0.0 0.00 0.43 0.00 90 962.0
20260506020213 54 268 0.0 0.0 0.00 0.43 0.00 90 962.0
20260506015210 54 261 0.0 0.0 0.00 0.43 0.00 90 961.0
20260506014201 0 0.0 0.0 0.00 0.00 0.00
20260506014155 54 262 0.0 0.0 0.00 0.43 0.00 90 961.0
20260506013156 54 263 0.0 0.0 0.00 0.43 0.00 90 962.0
20260506012151 54 255 0.0 0.0 0.00 0.43 0.00 90 962.0
20260506011429 54 255 0.0 0.0 0.00 0.43 0.00 90 962.0
20260506011148 54 255 0.0 0.0 0.00 0.43 0.00 90 962.0
20260506010144 54 246 0.0 0.0 0.00 0.43 0.00 90 962.0
20260506005134 55 245 0.0 0.0 0.00 0.43 0.00 89 962.0
20260506004127 55 255 0.0 0.0 0.00 0.00 0.00 89 962.0
20260506004121 55 255 0.0 0.0 0.00 0.43 0.00 89 962.0
20260506003127 55 246 0.0 0.0 0.00 0.43 0.00 89 961.0
20260506003122 55 246 0.0 0.0 0.00 0.43 0.00 89 961.0
20260506002119 55 231 0.0 0.0 0.00 0.43 0.00 89 961.0
20260506001120 55 254 0.0 0.0 0.00 0.43 0.00 89 961.0
20260506000116 55 245 0.0 0.0 0.00 0.43 0.00 89 961.0
20260505235113 55 242 0.0 0.0 0.00 0.43 0.00 89 962.0
20260505234114 55 239 0.0 0.0 0.00 0.43 0.00 89 962.0
20260505232112 55 244 0.0 0.0 0.08 0.00 0.43 89 962.0
20260505231113 55 237 0.0 0.0 0.08 0.00 0.43 89 962.0
20260505230119 0 232 0.0 0.0 0.00 0.00 0.43 89 962.0
20260505230114 55 232 0.0 0.0 0.08 0.00 0.43 89 962.0
20260505225112 55 232 0.0 0.0 0.08 0.00 0.43 89 962.0
20260505224113 55 238 0.0 0.0 0.08 0.00 0.43 88 962.0
20260505223114 55 225 0.0 0.0 0.16 0.00 0.43 88 962.0
20260505222107 56 217 0.0 0.0 0.16 0.00 0.43 89 962.0
20260505221108 56 216 0.0 0.0 0.16 0.00 0.43 88 962.0
20260505220109 55 199 0.0 0.0 0.16 0.00 0.43 88 962.0
20260505215107 56 206 0.0 0.0 0.16 0.00 0.43 89 962.0
20260505214108 56 216 0.0 0.0 0.16 0.00 0.35 89 963.0
20260505213100 56 192 0.0 0.0 0.12 0.00 0.35 88 963.0
20260505212057 56 176 0.0 0.0 0.12 0.00 0.32 88 962.0
20260505211101 56 196 0.0 0.0 0.12 0.00 0.32 88 96.2
20260505211057 56 196 0.0 0.0 0.12 0.00 0.32 88 962.0
20260505210058 56 195 0.0 0.0 0.12 0.00 0.28 88 962.0
20260505205049 57 197 0.0 0.0 0.12 0.00 0.24 87 963.0
20260505204152 57 181 0.0 0.0 0.00 0.00 0.20 85 963.0
20260505204050 57 181 0.0 0.0 0.00 0.00 0.20 85 963.0
20260505203051 58 248 0.0 0.0 0.00 0.00 0.16 83 963.0
20260505202047 58 259 0.0 0.0 0.00 0.00 0.12 81 963.0
20260505201048 58 272 0.0 0.0 0.00 0.00 0.08 81 963.0
20260505200045 58 276 0.0 0.0 0.00 0.00 0.08 81 963.0
20260505195043 58 279 0.0 0.0 0.00 0.00 0.08 80 963.0
20260505194043 58 287 0.0 0.0 0.00 0.00 0.08 78 963.0
20260505193117 59 291 0.0 0.0 0.00 0.00 0.08 78 963.0
20260505193023 59 291 0.0 0.0 0.00 0.00 0.08 78 963.0
20260505192015 59 294 0.0 0.0 0.00 0.00 0.08 78 963.0
20260505190951 59 294 0.0 0.0 0.00 0.00 0.08 78 962.0
20260505185941 59 295 0.0 0.0 0.00 0.00 0.08 79 962.0
20260505184938 59 292 0.0 0.0 0.00 0.00 0.08 78 962.0
20260505183938 59 295 0.0 0.0 0.00 0.00 0.08 78 963.0
20260505182939 59 294 0.0 0.0 0.00 0.00 0.08 77 963.0
20260505181935 59 304 0.0 0.0 0.00 0.00 0.08 75 963.0
20260505180936 59 291 0.0 0.0 0.00 0.00 0.08 74 963.0
20260505175936 60 291 0.0 0.0 0.00 0.00 0.08 73 963.0
20260505174925 60 292 0.0 0.0 0.00 0.00 0.08 71 963.0
20260505173916 60 290 0.0 0.0 0.00 0.00 0.08 69 963.0
20260505172917 60 292 0.0 0.0 0.00 0.00 0.08 69 963.0
20260505171915 61 289 0.0 0.0 0.00 0.00 0.08 69 963.0
20260505170915 61 289 0.0 0.0 0.00 0.00 0.08 68 964.0
20260505165902 61 292 0.0 0.0 0.00 0.00 0.08 68 964.0
20260505164859 62 289 0.0 0.0 0.00 0.00 0.08 68 964.0
20260505163858 62 293 0.0 0.0 0.00 0.00 0.08 68 964.0
20260505162859 62 289 0.0 0.0 0.00 0.00 0.08 68 964.0
20260505161856 62 291 0.0 0.0 0.00 0.00 0.08 67 964.0
20260505160857 62 289 0.0 0.0 0.00 0.00 0.08 67 964.0
20260505152830 63 292 0.0 0.0 0.00 0.00 0.08 68 964.0
20260505151822 62 295 0.0 0.0 0.00 0.00 0.08 67 964.0
20260505150823 63 287 0.0 0.0 0.00 0.00 0.08 66 964.0
20260505124701 64 285 0.0 0.0 0.00 0.00 0.08 68 965.0
20260505123632 64 284 0.0 0.0 0.00 0.00 0.08 67 965.0
20260505122633 64 283 0.0 0.0 0.00 0.00 0.08 70 965.0
20260505121612 63 286 0.0 0.0 0.00 0.00 0.08 69 965.0
20260505120613 63 287 0.0 0.0 0.00 0.00 0.08 70 966.0
20260505115541 63 287 0.0 0.0 0.00 0.00 0.08 73 966.0
20260505114539 63 288 0.0 0.0 0.00 0.00 0.08 74 966.0
20260505113540 62 289 0.0 0.0 0.00 0.00 0.08 80 966.0
20260505111538 61 286 0.0 0.0 0.00 0.00 0.08 87 966.0
20260505110641 61 290 0.0 0.0 0.00 0.00 0.08 87 966.0
20260505110537 61 290 0.0 0.0 0.00 0.00 0.08 87 966.0
20260505101533 58 268 0.0 0.0 0.00 0.00 0.08 87 966.0
20260505100534 58 268 0.0 0.0 0.00 0.00 0.08 86 966.0
20260505095535 58 272 0.0 0.0 0.00 0.00 0.08 86 966.0
20260505094558 58 275 0.0 0.0 0.00 0.00 0.08 86 966.0
20260505094525 58 275 0.0 0.0 0.00 0.00 0.08 86 966.0
20260505093526 58 273 0.0 0.0 0.04 0.00 0.08 86 966.0
20260505092519 58 275 0.0 0.0 0.04 0.00 0.08 86 967.0
20260505091518 58 273 0.0 0.0 0.04 0.00 0.08 86 967.0
20260505091511 58 273 0.0 0.0 0.04 0.00 0.08 86 967.0
20260505090507 58 272 0.0 0.0 0.04 0.00 0.08 86 967.0
20260505085508 58 273 0.0 0.0 0.04 0.00 0.08 86 967.0
20260505084459 58 273 0.0 0.0 0.04 0.00 0.08 86 967.0
20260505083500 57 271 0.0 0.0 0.00 0.00 0.08 86 967.0
20260505082456 57 273 0.0 0.0 0.00 0.00 0.08 85 967.0
20260505081444 57 271 0.0 0.0 0.00 0.00 0.08 85 967.0
20260505080445 57 271 0.0 0.0 0.00 0.00 0.08 85 966.0
20260505075440 57 271 0.0 0.0 0.00 0.00 0.08 85 966.0
20260505074418 56 272 0.0 0.0 0.00 0.00 0.04 85 966.0
20260505072405 56 271 0.0 0.0 0.00 0.00 0.04 85 966.0
20260505072400 56 271 0.0 0.0 0.00 0.00 0.04 85 966.0
20260505071357 56 271 0.0 0.0 0.00 0.00 0.04 85 966.0
20260505065344 56 269 0.0 0.0 0.00 0.00 0.04 84 967.0
20260505064341 56 267 0.0 0.0 0.00 0.00 0.04 85 967.0
20260505063342 56 264 0.0 0.0 0.00 0.00 0.04 85 966.0
20260505062343 55 264 0.0 0.0 0.00 0.00 0.04 84 966.0
20260505061337 55 264 0.0 0.0 0.00 0.00 0.04 84 966.0
20260505055336 55 262 0.0 0.0 0.00 0.00 0.04 84 967.0
20260505054334 55 262 0.0 0.0 0.00 0.00 0.04 84 967.0
20260505053335 55 265 0.0 0.0 0.00 0.00 0.04 84 967.0
20260505052326 55 266 0.0 0.0 0.00 0.00 0.04 83 967.0
20260505051320 55 268 0.0 0.0 0.00 0.00 0.04 83 967.0
20260505050319 55 272 0.0 0.0 0.00 0.00 0.04 83 967.0